Location: Clairmont
(55.2667°N, 118.8000°W)
Time: 22:35:45
(UTC+00:00)

Envisat - Pass Details

Date: 31 October 2020
Orbit: 764 x 766 km, 98.1° (Epoch: 03 December)

Event Time Altitude Azimuth Distance (km) Brightness Sun altitude
Rises 02:28:26 0° 216° (SW) 3,227 6.7 -18.7°
Reaches altitude 10° 02:31:39 10° 238° (WSW) 2,306 6.3 -19.2°
Maximum altitude 02:34:43 16° 275° (W) 1,931 6.1 -19.6°
Drops below altitude 10° 02:37:48 10° 313° (NW) 2,316 6.2 -20.0°
Sets 02:41:04 0° 335° (NNW) 3,248 6.7 -20.5°
